RH
37 34 34 33 34 34 34 30 27 26 26 24 22 18 14 20 27 23 6 3 3 4 4 4 4 4 4 4 4 5 7 7 8 8 8 8 8 9 10 11 12 12 12
33 34 34 35 34 36 35 34 29 28 27 26 25 23 18 12 19 26 11 4 4 4 5 5 6 7 8 8 6 5 5 5 6 7 8 9 9 10 10 11 12 11 11
37 34 34 35 35 36 36 33 30 30 32 32 30 26 22 16 12 22 22 7 5 6 7 7 8 8 9 9 9 9 8 8 8 9 10 10 11 11 11 11 11 10 9
35 35 34 34 33 34 37 32 32 33 35 35 33 29 25 19 12 16 24 17 7 7 8 8 8 9 9 9 9 10 10 10 10 10 11 11 11 11 10 9 9 11 14
37 35 35 33 32 37 37 35 34 35 36 35 34 32 28 23 15 12 22 24 20 12 8 8 8 8 8 8 9 9 9 9 9 10 10 11 12 15 17 19 19 17 16
43 36 36 34 33 40 36 37 37 37 36 35 34 33 28 24 22 17 13 20 25 25 24 23 22 22 22 21 21 20 18 18 16 16 15 15 14 14 15 17 19 20 21
43 38 37 36 39 42 38 38 38 39 38 38 38 35 30 25 22 22 21 19 16 15 16 17 18 18 19 19 20 19 20 20 19 19 20 20 20 20 21 20 20 19 19
44 40 38 37 43 45 42 39 39 40 41 41 41 40 40 42 39 31 24 23 22 22 21 21 21 22 22 22 22 22 22 22 22 22 21 22 21 21 21 21 22 23 23
46 41 40 39 43 45 44 42 41 40 42 42 42 43 42 45 45 44 41 36 31 26 25 24 24 24 24 26 26 25 25 25 24 24 24 23 23 24 23 22 22 22 23
42 44 42 41 42 45 45 45 43 42 43 44 44 43 44 44 44 45 48 46 44 40 37 35 31 29 27 28 28 28 27 27 27 24 23 22 22 22 23 23 23 24 23
42 48 43 43 43 45 46 46 45 44 44 44 45 45 44 45 45 46 47 49 49 49 48 45 43 40 37 33 31 30 28 28 27 24 25 26 28 28 27 27 24 21 14
36 43 50 48 47 46 47 46 46 45 44 45 48 46 46 45 46 46 47 49 50 50 50 50 50 48 45 42 37 33 31 29 27 26 28 29 28 26 25 21 17 10 7
48 46 50 50 48 48 47 47 46 45 45 45 47 47 46 46 48 48 46 47 48 50 51 52 51 52 51 49 44 38 34 31 28 28 29 27 24 21 16 11 8 8 8
46 45 46 50 50 49 47 46 46 45 46 45 46 46 46 47 49 51 49 47 49 50 52 52 52 53 53 52 50 46 39 33 30 28 27 21 16 14 11 8 8 9 9
40 41 46 46 45 49 52 49 48 47 47 47 48 48 48 49 52 52 49 48 51 53 53 52 53 54 55 54 53 50 44 37 31 28 25 18 13 10 10 10 10 11 12
38 38 39 44 45 44 43 46 52 54 53 52 52 51 50 49 52 53 53 52 55 55 54 54 55 56 57 55 55 53 47 40 33 28 24 20 14 11 11 13 15 16 17
41 37 37 39 41 42 41 36 40 45 50 50 46 43 49 50 51 56 56 55 56 54 53 54 55 56 55 54 55 56 51 42 33 30 30 27 23 18 13 12 14 17 19
47 43 36 36 40 40 38 36 41 46 47 48 46 43 44 48 52 57 54 54 54 54 55 57 57 55 55 55 58 58 54 44 34 32 31 29 28 28 27 25 21 17 15
53 51 53 45 47 40 39 43 43 43 49 50 54 51 51 53 55 58 58 57 55 51 50 56 57 57 56 56 60 62 57 43 35 33 34 39 42 43 43 43 43 41 38
58 64 66 69 67 63 50 48 50 45 41 47 52 54 54 54 55 55 53 48 49 47 50 55 60 60 60 58 63 64 56 41 36 38 42 43 44 44 44 44 44 43 43
42 45 53 67 72 75 70 64 51 46 47 47 50 53 55 56 55 59 53 51 51 48 52 61 64 64 61 57 66 65 54 42 41 44 47 46 46 45 45 45 46 47 47
17 15 40 43 57 74 77 79 77 68 59 54 52 53 56 59 56 62 56 54 54 51 51 62 65 67 57 58 68 64 51 47 46 49 50 50 48 46 45 46 48 49 50
32 30 23 23 27 45 68 71 71 78 73 59 50 51 52 59 56 65 66 64 60 56 55 65 67 65 63 63 71 63 52 49 51 53 54 52 50 48 50 51 52 53 53
16 21 30 36 40 38 38 39 43 62 72 69 62 59 65 67 68 65 67 72 73 65 64 85 75 70 68 67 78 66 54 52 55 56 56 56 56 55 56 57 58 59 58
12 14 16 22 34 49 54 49 54 58 72 70 74 74 76 74 71 69 64 71 76 76 72 85 97 94 81 79 93 79 57 57 59 61 62 62 61 60 62 64 64 62 61
20 22 22 22 24 29 49 60 62 59 59 61 61 69 75 75 77 75 74 69 73 74 74 82 100 99 96 92 85 96 67 59 62 64 67 68 65 64 67 69 67 65 64
Wind_Speed
10 8 7 6 4 4 10 12 10 9 9 9 10 10 9 8 7 8 8 7 6 4 2 1 1 1 2 4 6 8 7 7 6 7 8 8 9 9 9 10 10 10 11
12 9 9 7 4 3 6 12 9 9 9 10 10 9 9 8 6 6 6 5 4 4 3 2 3 3 3 1 2 4 5 5 6 6 7 7 7 8 9 11 11 11 11
13 13 10 9 5 1 5 9 7 8 9 9 10 9 9 8 6 4 4 5 4 4 3 2 3 3 1 1 1 1 2 3 4 5 6 7 9 10 11 11 11 12 12
16 14 12 11 8 5 4 7 7 6 7 8 9 9 9 8 6 3 2 3 3 3 3 3 3 2 2 3 2 2 3 4 5 7 8 9 10 11 12 12 11 10 10
14 15 13 11 8 5 2 4 4 5 6 8 9 9 9 8 8 6 3 3 3 3 3 2 2 2 3 3 3 4 5 5 5 7 8 9 10 10 10 10 9 9 9
13 14 13 10 9 4 3 1 2 4 5 7 10 9 9 8 8 8 8 6 5 4 4 4 3 3 3 4 4 5 5 5 5 6 7 9 10 10 9 8 8 8 8
8 14 14 12 10 5 4 3 1 3 4 5 8 8 9 10 9 9 9 9 9 8 8 7 7 6 6 6 6 6 6 6 6 7 7 8 9 8 7 8 8 8 8
12 15 16 15 12 7 6 6 3 3 4 4 5 6 8 10 11 12 11 10 9 8 7 7 7 6 6 7 7 7 7 8 8 8 9 9 10 10 9 10 10 11 11
11 16 17 18 15 10 8 9 8 6 6 5 3 3 5 6 9 10 10 11 11 10 9 8 8 7 8 7 8 9 9 10 10 11 11 11 12 11 12 12 13 14 14
18 17 19 19 18 13 12 10 10 9 8 8 6 4 4 4 4 6 7 8 8 8 9 9 8 8 9 9 8 9 9 10 11 13 14 13 13 13 13 14 15 14 15
16 18 20 21 22 18 15 13 13 13 11 10 9 8 7 6 5 5 4 4 5 6 7 8 9 9 10 10 10 9 9 10 12 13 14 14 15 15 15 16 16 15 15
19 18 20 23 24 22 18 16 16 16 14 13 12 11 11 10 8 7 7 6 6 6 6 7 9 10 11 13 12 12 12 12 13 14 15 16 16 16 16 17 16 14 13
18 17 18 20 22 23 21 20 19 18 17 16 15 15 14 13 11 11 11 9 8 9 8 8 9 10 12 14 15 15 14 14 15 15 16 17 17 16 17 16 15 14 13
21 21 19 20 21 22 21 21 21 21 20 19 18 17 16 16 15 15 15 13 11 12 11 12 13 13 14 15 16 17 17 17 17 17 17 17 17 16 16 16 16 15 14
30 28 24 23 22 21 20 20 21 21 21 20 20 19 19 20 19 18 16 15 13 15 15 15 16 15 15 17 17 18 18 18 17 17 18 18 17 16 15 16 16 16 16
36 35 31 30 28 26 22 21 21 20 20 20 19 19 21 22 22 20 19 17 17 17 17 17 17 17 18 19 19 19 19 19 18 17 17 17 17 17 16 16 17 18 19
40 38 35 33 34 34 32 29 27 24 22 22 23 23 22 22 23 23 20 18 19 18 18 18 18 19 20 20 22 22 21 20 18 17 17 17 17 17 17 17 18 20 21
42 43 41 37 35 34 35 33 30 27 25 25 24 23 22 23 23 21 20 19 19 19 21 21 21 22 22 23 23 23 22 21 19 18 17 15 15 15 16 18 19 21 22
42 41 40 40 37 35 33 32 31 30 29 26 26 25 24 23 22 22 22 22 22 23 25 24 23 23 23 23 23 23 22 20 19 17 16 15 14 14 15 17 19 21 23
44 43 42 41 40 39 39 37 35 35 32 32 29 28 27 26 26 26 25 24 23 24 25 24 24 24 24 24 23 23 22 20 18 16 15 15 14 16 17 19 21 23 25
56 56 51 47 43 43 45 44 42 39 34 33 31 30 30 29 27 26 25 22 23 23 24 24 23 25 25 24 23 22 21 20 18 17 16 16 16 18 20 22 24 26 27
46 52 59 57 52 49 47 45 47 43 41 37 34 32 32 32 31 28 28 26 24 23 22 24 23 24 24 23 22 22 22 22 20 18 18 18 19 21 23 25 27 29 30
39 39 45 51 54 59 58 53 50 48 47 45 40 37 35 35 33 30 30 28 25 24 23 25 25 23 22 23 23 23 23 23 22 21 21 21 22 24 25 28 31 33 34
40 40 42 42 42 45 49 55 56 56 51 47 40 38 38 37 34 32 33 32 28 26 28 26 28 26 23 22 24 25 25 26 25 25 24 25 25 26 28 31 34 36 37
34 41 44 45 45 44 43 48 46 51 53 48 45 43 43 41 38 35 33 34 33 31 31 27 31 27 26 24 22 26 28 28 28 28 28 28 28 28 30 34 36 39 42
17 18 22 26 37 46 48 48 49 48 52 54 51 49 46 43 41 37 34 34 35 35 33 32 33 33 29 24 22 29 30 31 31 31 31 30 30 30 32 35 39 42 44
Wind_Direction
193 176 151 129 102 38 39 28 16 11 10 11 15 10 357 340 337 338 342 344 347 13 15 337 306 267 182 201 223 230 240 252 269 275 275 273 273 275 282 293 300 304 305
188 184 164 147 121 37 32 23 13 12 14 13 12 13 8 357 340 338 345 358 18 46 50 9 354 56 40 110 149 190 225 243 252 262 274 281 286 290 292 294 296 298 297
218 194 181 162 144 85 54 34 21 13 16 18 13 11 9 7 359 347 351 4 27 48 50 37 33 43 26 13 70 148 194 238 258 274 287 295 294 290 289 290 293 295 295
201 196 192 173 161 137 69 51 35 10 12 14 12 11 12 12 15 15 21 33 42 65 62 38 27 16 356 349 342 322 304 305 303 300 297 292 288 287 289 291 294 295 294
208 201 193 183 170 136 107 64 33 5 5 11 11 9 15 22 27 32 42 54 54 61 74 68 20 0 351 342 332 324 320 312 314 302 294 291 292 292 290 293 293 292 295
215 211 195 193 180 163 160 113 19 357 358 7 0 7 15 27 39 45 50 50 52 57 65 66 57 36 16 5 356 349 344 338 323 313 309 299 296 291 295 295 295 293 297
228 218 204 199 186 178 187 185 48 344 344 0 8 20 32 37 44 50 54 56 55 53 51 50 47 39 29 19 16 10 1 346 330 316 306 300 294 296 300 297 294 303 301
215 224 216 205 198 196 206 217 241 287 306 335 4 19 35 39 43 48 52 53 54 52 49 42 34 27 21 12 7 2 350 339 330 320 313 307 303 305 299 294 295 290 289
225 220 220 213 208 213 223 220 236 262 274 286 313 352 12 27 34 38 43 50 51 50 45 37 26 15 5 359 359 350 344 335 326 319 312 306 304 303 297 295 296 294 295
230 226 219 221 218 232 231 229 240 251 268 277 283 290 311 333 359 20 28 36 41 40 41 39 30 21 7 355 354 347 340 331 325 319 313 312 311 305 302 298 293 295 295
227 229 228 225 222 232 233 236 242 248 257 264 276 281 280 288 308 320 331 351 5 16 14 12 8 3 358 350 350 344 337 329 322 316 313 314 310 305 302 297 294 296 293
244 238 237 238 235 237 238 240 242 244 252 255 261 270 273 275 281 285 292 301 313 326 331 343 344 340 341 336 339 337 333 328 321 316 313 312 309 308 304 297 296 295 293
238 236 238 240 241 242 241 241 243 245 251 256 259 265 268 269 275 283 280 283 289 296 299 307 315 320 322 325 328 328 325 323 320 316 314 314 312 308 301 297 292 289 285
243 246 245 241 241 243 244 246 247 248 251 257 260 267 266 263 270 278 276 274 274 283 285 293 299 303 307 311 317 318 319 319 319 317 314 313 310 307 302 298 295 291 287
246 243 243 249 249 247 247 247 251 255 257 260 261 267 264 263 264 268 270 269 270 276 279 284 288 292 296 299 305 308 311 314 315 314 313 312 310 309 305 300 297 294 288
256 249 244 245 248 250 249 252 253 253 256 259 262 269 267 264 262 261 266 263 266 268 272 277 282 287 288 293 297 298 301 304 307 308 307 307 307 306 304 300 297 292 290
259 256 250 246 248 250 253 254 253 252 254 258 264 263 264 263 261 263 258 256 260 268 273 276 281 282 286 290 292 293 295 298 300 300 303 304 304 304 302 299 296 294 294
250 256 259 254 248 249 251 251 253 254 253 253 257 256 258 261 262 256 253 256 263 270 274 277 279 283 286 289 290 290 291 294 295 296 297 300 304 307 306 304 303 300 297
248 250 252 257 255 252 252 253 252 252 253 252 250 252 252 257 256 256 258 262 268 271 275 277 280 283 285 286 285 285 286 288 288 289 292 298 304 307 309 311 311 307 305
246 246 245 245 250 254 258 257 254 253 252 252 250 250 252 253 253 255 254 263 267 273 275 276 278 282 285 283 280 280 281 281 279 278 281 289 299 304 309 311 310 309 308
243 244 245 243 244 246 251 257 259 255 253 255 252 251 254 256 256 256 256 255 265 274 275 272 277 283 283 279 275 275 274 272 271 271 275 283 290 297 302 304 304 305 305
246 246 242 244 244 242 245 249 257 258 259 254 251 252 253 253 255 255 261 259 264 273 277 274 276 282 280 275 271 269 268 267 267 268 276 284 291 296 300 302 303 303 303
246 245 248 248 245 243 244 244 249 254 252 251 249 250 251 253 257 255 259 262 268 275 278 274 277 284 280 275 267 265 264 265 265 268 275 282 288 293 299 303 304 305 305
245 245 243 243 246 244 246 247 246 248 254 256 255 253 255 255 256 257 260 261 265 274 279 270 277 285 284 280 266 263 262 263 266 270 275 281 288 295 301 305 307 307 307
253 249 247 244 242 244 244 245 246 244 247 253 253 253 255 257 256 258 259 260 262 270 279 270 273 280 280 287 277 266 262 263 265 271 275 281 288 296 302 305 308 310 309
264 259 258 258 258 253 251 250 251 248 249 252 253 254 251 255 256 256 258 264 261 266 271 268 263 272 276 277 277 271 266 264 266 270 275 282 288 294 300 305 308 309 308